Weather Roundup
Issued by NWS Springfield, MO

Home | Current Version | Previous Version | Text Only | Print | Product List | Glossary On
Versions: 1 2 3 4 5 6 7 8 9 10 11 12 13 14 15 16 17 18 19 20 21 22 23 24 25 26 27 28 29 30 31 32 33 34 35 36 37 38 39 40 41 42 43 44 45 46 47 48 49 50
000
NZUS99 KSGF 130707
HRRSGF

HOURLY WEATHER
NATIONAL WEATHER SERVICE SPRINGFIELD MO
200 AM CDT SUN JUL 13 2014

......SGF CWA......

CITY           SKY/WX    TMP DP  RH WIND       PRES   REMARKS
SPRINGFIELD    CLEAR     73  67  81 S7        30.05F
JOPLIN         CLEAR     79  65  62 S12       30.03F
WEST PLAINS    CLEAR     75  70  84 S5        30.08F
ROLLA          CLEAR     75  70  84 S8        30.01F
OSAGE BEACH    CLEAR     79  66  65 SW8       30.01S
BRANSON        CLEAR     75  66  73 S5        30.08F

......SURROUNDING SGF CWA......

CITY           SKY/WX    TMP DP  RH WIND       PRES   REMARKS
CHANUTE        CLEAR     74  64  71 S10       29.99F
PARSONS        CLEAR     73  65  75 S5        30.01F
COFFEYVILLE    CLEAR     77  65  66 S12       30.00F
EMPORIA        CLEAR     73  67  81 S12       29.98S
GROVE OK       CLEAR     77  64  65 S6        30.04F
ROGERS AR      CLEAR     73  65  75 S7        30.09F
SILOAM SPRINGS CLEAR     75  61  60 SE7       30.09F
HARRISON AR    CLEAR     73  68  84 CALM      30.09F
NEAR YELLVILLE CLEAR     73  66  78 S3        30.06F

......KANSAS AND MISSOURI......

CITY           SKY/WX    TMP DP  RH WIND       PRES   REMARKS
KANSAS CTY INT CLOUDY    80  69  69 NW9       30.00R
DOWNTOWN KC    PTCLDY    84  66  54 SW12      29.95F
COLUMBIA       CLEAR     78  69  73 SW10      29.99S
SEDALIA        CLEAR     79  68  69 SW10      30.00S
ST JOSEPH      MOCLDY    75  68  78 N14       30.02R
ST LOUIS       MOCLDY    83  70  64 SW10      29.98S
SPIRIT OF STL  PTCLDY    80  69  69 SW7       29.97S
KIRKSVILLE     HVY RAIN  75  73  93 NW9       30.00R FOG
WICHITA        PTCLDY    73  60  63 S9        30.00S
TOPEKA         CLOUDY    82  69  64 SW9       29.97R
OLATHE         CLEAR     77  67  71 SW6       29.98S

......TENNESSEE......

CITY           SKY/WX    TMP DP  RH WIND       PRES   REMARKS
MEMPHIS        PTCLDY    77  70  79 S5        30.06F
NASHVILLE      PTCLDY    76  69  79 CALM      30.09F

......ARKANSAS.......

CITY           SKY/WX    TMP DP  RH WIND       PRES   REMARKS
FAYETTEVILLE   CLEAR     69  67  93 S5        30.09F
FT SMITH       CLEAR     78  73  84 E5        30.05F
LITTLE ROCK    CLEAR     79  72  79 CALM      30.06F

......OKLAHOMA.......

CITY           SKY/WX    TMP DP  RH WIND       PRES   REMARKS
TULSA          CLEAR     81  62  52 S12       30.01F
PONCA CITY     CLEAR     77  58  51 VRB6      30.01S
MCALESTER      CLEAR     77  66  68 S3        30.07F
OKLAHOMA CITY  CLEAR     71  60  68 S7        30.06F

......IOWA............

CITY           SKY/WX    TMP DP  RH WIND       PRES   REMARKS
DES MOINES     MOCLDY    68  66  93 SW5       30.00R
QUAD CITIES    MOCLDY    70  67  90 NW8       29.94S

......ILLINOIS........

CITY           SKY/WX    TMP DP  RH WIND       PRES   REMARKS
QUINCY         CLOUDY    81  69  67 W8        29.95R
CHICAGO        CLOUDY    71  66  84 W8        29.85S



USA.gov is the U.S. government's official web portal to all federal, state and local government web resources and services.